Regional Weather Roundup
Issued by NWS

Home | Current Version | Previous Version | Graphics & Text | Print | Product List | Glossary Off
Versions: 1 2 3 4 5 6 7 8 9 10 11 12 13 14 15 16 17 18 19 20 21 22 23 24 25 26 27 28 29 30 31 32 33 34 35 36 37 38 39 40 41 42 43 44 45 46 47 48 49 50

000
ASUS43 KMKX 222221
RWRWI

WISCONSIN REGIONAL WEATHER ROUNDUP
NATIONAL WEATHER SERVICE MILWAUKEE/SULLIVAN WI
500 PM CDT SUN OCT 22 2017

NOTE: "FAIR" INDICATES FEW OR NO CLOUDS BELOW 12,000 FEET WITH NO
SIGNIFICANT WEATHER AND/OR OBSTRUCTIONS TO VISIBILITY.

WIZ001-002-006>008-014>016-023>028-222300-
NORTHWEST WISCONSIN

CITY           SKY/WX    TMP DP  RH WIND       PRES   REMARKS
SUPERIOR ARPT  SUNNY     61  29  30 W10G17    29.86S
ASHLAND        CLEAR     58  36  43 SW10      29.89S
HAYWARD        CLEAR     58  32  37 SW7       29.91F
SIREN          SUNNY     60  28  29 W7G18     29.92S
CUMBERLAND     SUNNY     55  32  41 SW9       29.93F
RICE LAKE      SUNNY     59  32  35 SW9       29.95S
CHETEK         SUNNY     59  33  37 SW7       29.94F
LADYSMITH      CLOUDY    57  39  50 S6        29.95F
EAU CLAIRE     MOSUNNY   60  32  34 W7        29.95F
MENOMONIE      SUNNY     60  35  38 SW8       29.95F
NEW RICHMOND   SUNNY     60  27  28 SW10      29.94F
OSCEOLA        SUNNY     61  31  32 SW7       29.96F
$$

WIZ003>005-009-010-017-018-222300-
NORTH CENTRAL WISCONSIN

CITY           SKY/WX    TMP DP  RH WIND       PRES   REMARKS
MANITOWISH WTR CLOUDY    47  43  84 SW6       29.93S
ARBOR VITAE    MOCLDY    51  44  77 SW3       29.94R
WOODRUFF       MOCLDY    51  44  77 SW3       29.94R
RHINELANDER    CLOUDY    49  43  80 W6        29.96R
EAGLE RIVER    NOT AVBL
LAND O LAKES   CLOUDY    49  41  75 SW5       29.95R
PHILLIPS       CLEAR     49  40  70 S5        29.94S
TOMAHAWK       CLOUDY    48  41  76 CALM      29.97R
MEDFORD        CLOUDY    49  40  69 SW3       29.96F
MERRILL        CLOUDY    50  42  75 W6        29.98R
$$

WIZ029-030-035-036-043>047-222300-
CENTRAL WISCONSIN

CITY           SKY/WX    TMP DP  RH WIND       PRES   REMARKS
WAUSAU         CLOUDY    50  42  74 SW6       29.97R
MOSINEE        MOCLDY    48  45  87 SW7       29.99R
MARSHFIELD     CLOUDY    50  43  77 SW6       29.98S
STEVENS POINT  CLOUDY    48  48  98 SW5       30.00R
WAUPACA        CLOUDY    53  50  92 SW5       30.01R
WAUTOMA        CLOUDY   N/A N/A N/A SW5       30.02R
WISC RAPIDS    CLOUDY    51  47  86 SW6       30.00S
CAMP DOUGLAS   NOT AVBL
$$

WIZ011>013-019>022-031-037>040-048>050-222300-
NORTHEAST WISCONSIN

CITY           SKY/WX    TMP DP  RH WIND       PRES   REMARKS
ANTIGO         CLOUDY    47  46  93 SW6       29.98R
SHAWANO        LGT RAIN  52  49  90 CALM      29.98F
OCONTO         CLOUDY    51  48  91 W5        29.99S
STURGEON BAY   LGT RAIN  51  50  96 W7        30.00R
GREEN BAY      RAIN      51  51 100 W7        29.99S FOG
MANITOWOC      LGT RAIN  52  50  93 W3        30.01R
APPLETON       LGT RAIN  48  48 100 CALM      29.99S
CLINTONVILLE   DRIZZLE   52  48  87 S5        29.99S
OSHKOSH        LGT RAIN  50  49  96 CALM      30.00S FOG
$$

WIZ032>034-041-042-053>061-222300-
SOUTHWEST WISCONSIN

CITY           SKY/WX    TMP DP  RH WIND       PRES   REMARKS
LA CROSSE      CLOUDY    56  45  66 S8        30.01S
SPARTA         CLOUDY    52  45  76 CALM      30.02R
VIROQUA        CLOUDY    51  47  84 SW5       30.03R
BOSCOBEL       CLOUDY    54  47  77 SW3       30.04R
PRAIRIE DU CHI CLOUDY    55  43  64 W3        30.03S
PLATTEVILLE    CLOUDY    52  49  90 W3        30.05R
$$

WIZ056-057-062-063-064-067-068-222300-
SOUTH CENTRAL WISCONSIN

CITY           SKY/WX    TMP DP  RH WIND       PRES   REMARKS
REEDSBURG      CLOUDY    51  50  99 CALM      30.02S
BARABOO/DELLS  CLOUDY    50  47  88 SW3       30.02F
LONE ROCK      CLOUDY    53  49  86 CALM      30.03R
MINERAL POINT  CLOUDY    52  50  93 CALM      30.04R
MADISON        LGT RAIN  50  47  89 NW5       30.02R
MIDDLETON      CLOUDY    51  47  84 NW6       30.03F
WATERTOWN      LGT RAIN  50  50 100 CALM      30.03R
MONROE         DRIZZLE   50  46  87 N3        30.03S
JANESVILLE     LGT RAIN  52  52 100 NW3       30.03R
$$

WIZ051-052-058>065-066-070>072-222300-
SOUTHEAST WISCONSIN

CITY           SKY/WX    TMP DP  RH WIND       PRES   REMARKS
MILWAUKEE      RAIN      52  50  93 N6        30.02S FOG
WAUKESHA       LGT RAIN  48  46  93 NW5       30.02S FOG
MILWAUKEE/TIMM RAIN      52  46  82 CALM      30.03R FOG
RACINE         LGT RAIN  51  50  96 N10G16    30.04R FOG
BURLINGTON     LGT RAIN  49  49 100 CALM      30.02S
KENOSHA        RAIN      51  49  92 N5        30.03R FOG
FOND DU LAC    RAIN      51  48  89 NW6       30.01R FOG
SHEBOYGAN      LGT RAIN  52  51  97 CALM      30.01R
WEST BEND      RAIN      50  50 100 CALM      30.01S
JUNEAU         LGT RAIN  49  47  95 CALM      30.03R
$$

LSZ147-162-222300-
LAKE SUPERIOR

STATION/POSITION TIME  TEMP    WIND        PRES    WAVE
                       AIR SEA DIR/SP/G            HT/PER
                 (UTC) (F)     (DEG/KT/KT) (MB)    (FT/S)
W MID LAKE BUOY  2150   54 52              1010.8R   4/ 6
DEVILS ISLAND    2200   57     230/ 16/ 19 1011.2F
PORT WING        2040          240/ 12/ 15 1011.5
SAXON HARBOR     2140   59     200/  6/ 12 1011.9S
$$

LMZ867-665-643>646-222300-
LAKE MICHIGAN

STATION/POSITION TIME  TEMP    WIND        PRES    WAVE
                       AIR SEA DIR/SP/G            HT/PER
                 (UTC) (F)     (DEG/KT/KT) (MB)    (FT/S)
S GREEN BAY BUOY 2200   53 58  260/ 12/ 14 1015.5
N MID LAKE BUOY  2150   53 57  290/ 12/ 14 1015.4R   4/ 7
NORTHPORT PIER   2140   52     220/  1/  3 1014.9S
KEWAUNEE LAKESHO 2154   52     280/  2/  4 1014.9R
SHEBOYGAN LAKESH 2200   51      10/  2/  3 1016.1R
PORT WASHINGTON  2130   53     310/  2/  3 1017.3R
MILWAUKEE LAKESH 2200   51     360/  4/  4   N/A
S MID LAKE BUOY  2150   55 60  360/ 25/ 29 1015.0R   5/ 5
KENOSHA   LAKESH 2200   51     360/ 11/ 14 1016.6
$$

TC  - TEMPERATURE IN CELSIUS
VSB - VISIBILITY IN STATUTE MILES
WCI - WIND CHILL INDEX
HX  - HEAT INDEX





USA.gov is the U.S. government's official web portal to all federal, state and local government web resources and services.